Home > Weather > Spa > Past weeks

Flag for Belgium Weather for the Past 2 Weeks in Spa, Belgium

Now
40 °F

Passing clouds.


Feels Like: 34 °F
Forecast: 37 / 47 °F
Wind: 9 mph from Southwest

Location: Spa / La Sauveniere

Current Time: Feb 8, 2016 at 6:56:57 PM

Latest Report: Feb 8, 2016 at 6:00 PM


Visibility: 13 mi

Pressure: 29.44 "Hg

Humidity: 80%

Dew point: 34 °F

Location of SpaLocation

Historic Weather in Spa — Graph

°F

Spa Temperature Yesterday

Maximum temperature yesterday: 46 °F (at 5:00 AM)
Minimum temperature yesterday: 39 °F (at 9:00 PM)
Average temperature yesterday: 42 °F

High & Low Weather Summary for the Past Weeks

 TemperatureHumidityPressure
High52 °F (Jan 25, 3:00 PM)97% (Jan 24, 6:00 PM)30.47 "Hg (Jan 24, 6:00 PM)
Low34 °F (Feb 3, 7:00 PM)52% (Jan 25, 3:00 PM)29.35 "Hg (Feb 8, 7:00 AM)
Average42 °F86%30.06 "Hg
* Reported Jan 24 5:00 PM — Feb 8 5:00 PM, Spa, Weather by CustomWeather, © 2016

Note: Actual official high and low records may vary slightly from our data, if they occured in-between our weather recording intervals... More about our weather records

Advertising

Spa Weather History for the Previous 24 Hours

 ConditionsComfort  
Time TempWeatherWind HumidityBarometerVisibility
5:00 PM
Mon, Feb 8
42 °FScattered clouds.9 mph65%29.38 "Hg14 mi
4:00 PM43 °FPartly sunny.9 mph64%29.38 "Hg19 mi
2:00 PM43 °FScattered clouds.10 mph73%29.35 "Hg19 mi
1:00 PM41 °FScattered clouds.10 mph82%29.35 "Hg22 mi
12:00 PM40 °FLight rain. Overcast.10 mph86%29.38 "Hg6 mi
11:00 AM41 °FLight rain. Partly sunny.8 mph86%29.38 "Hg8 mi
10:00 AM42 °FLow clouds.9 mph90%29.35 "Hg16 mi
9:00 AM41 °FRain. Partly sunny.10 mph93%29.38 "Hg2 mi
8:00 AM43 °FRain. Passing clouds.9 mph92%29.35 "Hg3 mi
7:00 AM44 °FLight rain. Low clouds.10 mph89%29.35 "Hg6 mi
6:00 AM43 °FOvercast.12 mph87%29.38 "Hg25 mi
5:00 AM41 °FPassing clouds.9 mph89%29.41 "Hg6 mi
9:00 PM
Sun, Feb 7
39 °FClear.7 mph77%29.70 "Hg25 mi
8:00 PM39 °FClear.7 mph77%29.70 "Hg28 mi
7:00 PM40 °FClear.6 mph75%29.70 "Hg25 mi
6:00 PM40 °FClear.6 mph70%29.69 "Hg28 mi
Weather by CustomWeather, © 2016

See weather overviewHow to use our weather pages